COSMOS 2251 DEB, 34755

Orbit data source: Space-Track

COSMOS 2251 DEB, 34755 is space debris in LEO originally from a launch on Wed, 16 Jun 1993 UTC launched from the Plesetsk Missile And Space Complex (PKMTR). The debris from Iridium 33, an American commercial communications satellite, has been tracked extensively since its accidental collision with the defunct Russian satellite Cosmos 2251 in 2009. This event, occurring at high speed in low Earth orbit (LEO), generated thousands of pieces of space debris, significantly increasing the risk of further collisions. The Iridium 33 debris cloud has impacted space traffic management and orbital debris mitigation strategies, making it a subject of ongoing study in space situational awareness.

Loading next visibility...
Identifier
34755, 1993-036ZZ
Orbit
LEO
Country
Flag of CISCIS
Related business
Manufacturer
Unknown
Mission
Spacecraft
Bus & Motor
Unknown
Mass
Unknown
Launch date (UTC)
1993-06-16 (33 years ago)
Launch vehicle
Unknown
Launch site
Plesetsk Missile And Space Complex (PKMTR)
Object type
Payload
Rocket body
Debris
Shape & HBR
Unknown shape, 0.1 m
Radar Cross Section
Small (<0.1 m²)

Expand to show TLE details & history
Last TLE update: 2 days ago

TLE from 2 days ago
0 COSMOS 2251 DEB
1 34755U 93036ZZ  25351.24312581  .00000828  00000-0  78980-3 0  9990
2 34755  73.9260 282.7855 0408184 301.8273 214.5982 13.50569003825849
Epoch: 2025-12-17T05:50Z
TLE epoch observation values (Epoch: 2025-12-17T05:50:06.069Z)
Latitude
25.06031°
Longitude
-78.56021°
Altitude
1,326.904 km
Speed
7.072 km/s
True Right ascension
06h 20m 19s
True Declination
24° 56' 18"
Sunlit
Object was in full shadow at epoch
Visualization orbit readout
Latitude
Unknown
Longitude
Unknown
Altitude
Unknown
Speed
Unknown
Apparent Right ascension
Unknown
Apparent Declination
Unknown
Sunlit
N/A
Visualization observer readout
Local Sidereal Time
02:11:05
Azimuth
Unknown
Elevation
Unknown
Doppler factor
Unknown
Orbital elements
Apogee altitude
1,371.823 km
Perigee altitude
763.954 km
Semi-major axis
7,446.026 km
Eccentricity
0.04082
Inclination
73.926°
RAAN
282.7855°
Arg. of periapsis
301.8273°
True anomaly
212.05031°
Mean anomaly
214.5982°
Eccentric anomaly
213.31372°
Mean motion
3.37797 °/min
Orbital period
106.57 mins
BSTAR
0.0007898

Documentation

Showing up to 5 results
|